Location: Deuil
(48.9767°N, 2.3272°E)
Time: 17:07:05
(UTC+00:00)

Meteor 1-18 Rocket - Visible Passes

Search period start: 11 August 2022 00:00
Search period end: 21 August 2022 00:00
Orbit: 837 x 908 km, 81.2° (Epoch: 10 August)

Date Brightness Start Highest point End Pass type
(mag) Time Alt. Az. Time Alt. Az. Time Alt. Az.
11 Aug 6.3 20:00:38 10° NNE 20:02:54 12° NE 20:05:09 10° ENE visible
11 Aug 4.5 21:41:49 10° N 21:47:41 61° ENE 21:49:52 37° SE visible
11 Aug 5.9 23:26:02 10° NW 23:30:36 24° W 23:32:20 21° WSW visible
12 Aug 6.3 19:55:04 10° NNE 19:57:33 13° NE 20:00:01 10° ENE visible
12 Aug 4.4 21:36:24 10° N 21:42:18 63° ENE 21:44:32 37° SE visible
12 Aug 5.9 23:20:42 10° NW 23:25:10 23° W 23:27:01 20° WSW visible
13 Aug 6.3 19:49:32 10° NNE 19:52:13 13° NE 19:54:51 10° E visible
13 Aug 4.4 21:31:00 10° N 21:36:54 66° ENE 21:39:14 37° SE visible
13 Aug 6.0 23:15:22 10° NW 23:19:44 22° W 23:21:43 18° WSW visible
14 Aug 6.2 19:44:01 10° NNE 19:46:51 14° NE 19:49:40 10° E visible
14 Aug 4.3 21:25:37 10° N 21:31:30 68° ENE 21:33:56 36° SSE visible
14 Aug 6.1 23:10:03 10° NW 23:14:17 21° W 23:16:25 17° WSW visible
15 Aug 6.2 19:38:30 10° NNE 19:41:30 14° NE 19:44:29 10° E visible
15 Aug 4.3 21:20:12 10° N 21:26:07 71° ENE 21:28:40 35° SSE visible
15 Aug 6.2 23:04:44 10° NW 23:08:51 20° W 23:11:09 16° WSW visible
16 Aug 6.2 19:33:00 10° NNE 19:36:09 15° NE 19:39:16 10° E visible
16 Aug 4.3 21:14:48 10° N 21:20:42 74° ENE 21:23:24 33° SSE visible
16 Aug 6.2 22:59:25 10° NW 23:03:25 19° W 23:05:53 15° WSW visible
17 Aug 4.2 21:09:24 10° N 21:15:19 77° ENE 21:18:10 31° SSE visible
17 Aug 6.3 22:54:06 10° NW 22:57:58 19° W 23:00:39 14° WSW visible
18 Aug 4.2 21:04:00 10° N 21:09:54 80° ENE 21:12:56 30° SSE visible
18 Aug 6.4 22:48:49 10° NW 22:52:32 18° W 22:55:26 12° WSW visible
19 Aug 4.2 20:58:37 10° N 21:04:30 83° ENE 21:07:45 28° SSE visible
19 Aug 6.5 22:43:31 10° NW 22:47:06 17° W 22:50:14 11° WSW visible
20 Aug 4.2 20:53:13 10° N 20:59:06 86° E 21:02:34 25° SSE visible
20 Aug 6.6 22:38:14 10° NW 22:41:40 16° W 22:45:02 10° WSW visible
